Regional Weather Roundup
Issued by NWS

Home | Current Version | Previous Version | Graphics & Text | Print | Product List | Glossary On
Versions: 1 2 3 4 5 6 7 8 9 10 11 12 13 14 15 16 17 18 19 20 21 22 23 24 25 26 27 28 29 30 31 32 33 34 35 36 37 38 39 40 41 42 43 44 45 46 47 48 49 50
000
ASUS43 KOAX 270610
RWRNE

WEATHER ROUNDUP FOR NEBRASKA
NATIONAL WEATHER SERVICE OMAHA NE
100 AM CDT FRI MAY 27 2016

NOTES: SATELLITE DATA IS BEING USED TO AUGMENT CLOUD COVER ABOVE
       12000 FEET.
       "FAIR" INDICATES FEW OR NO CLOUDS BELOW 12,000 FEET WITH NO
       SIGNIFICANT WEATHER AND/OR OBSTRUCTIONS TO VISIBILITY.

  * THESE STATIONS DO NOT REPORT WEATHER SUCH AS RAIN...SNOW OR FOG.

NEZ001>004-019>022-054>056-270700-
NEBRASKA PANHANDLE

CITY           SKY/WX    TMP DP  RH WIND       PRES   REMARKS
SCOTTSBLUFF    CLOUDY    50  42  74 W6        29.83F
6HR MIN TEMP:  50; 6HR MAX TEMP:  63;

ALLIANCE       CLOUDY    52  46  80 NE5       29.82F
6HR MIN TEMP:  52; 6HR MAX TEMP:  62;

CHADRON        CLOUDY    46  43  89 S3        29.84F
6HR MIN TEMP:  46; 6HR MAX TEMP:  67;

KIMBALL        CLOUDY    51  45  80 NW6       29.85F
SIDNEY         CLOUDY    50  48  93 NW9       29.81F
6HR MIN TEMP:  49; 6HR MAX TEMP:  61; 6HR PCP: TRACE;

$$

NEZ057>060-069>072-079>082-270700-
SOUTHWEST NEBRASKA

CITY           SKY/WX    TMP DP  RH WIND       PRES   REMARKS
NORTH PLATTE   LGT RAIN  55  53  93 NW8       29.82F
6HR MIN TEMP:  55; 6HR MAX TEMP:  74; 6HR PCP:  0.84;

IMPERIAL       CLOUDY    54  49  83 N17       29.70F
6HR MIN TEMP:  53; 6HR MAX TEMP:  66; 6HR PCP:  0.57;

LEXINGTON      CLOUDY    57  55  92 SW6       29.71F
MCCOOK         CLOUDY    54  51  90 SE7       29.69R
6HR MIN TEMP:  54; 6HR MAX TEMP:  69; 6HR PCP:  0.39;

OGALLALA       CLOUDY    56  50  81 E7G17     29.72R
$$

NEZ005>010-023>029-035>040-094-270700-
NORTH CENTRAL NEBRASKA

CITY           SKY/WX    TMP DP  RH WIND       PRES   REMARKS
VALENTINE      LGT RAIN  56  52  86 E12       29.83F
6HR MIN TEMP:  56; 6HR MAX TEMP:  76; 6HR PCP:  0.28;

AINSWORTH      CLOUDY    59  51  73 N17G24    29.83F
BROKEN BOW     RAIN      58  57  97 E8        29.81F FOG
6HR MIN TEMP:  58; 6HR MAX TEMP:  71; 6HR PCP:  0.50;

O`NEILL        CLOUDY    62  58  88 S3        29.83S
ORD            RAIN      60  57  89 S7        29.80R
6HR MIN TEMP:  60; 6HR MAX TEMP:  73; 6HR PCP:  0.05;

THEDFORD       DRIZZLE   59  55  85 CALM      29.83R
$$

NEZ041-046>049-061>064-073>077-083>087-270700-
SOUTH CENTRAL NEBRASKA

CITY           SKY/WX    TMP DP  RH WIND       PRES   REMARKS
GRAND ISLAND   RAIN      59  57  93 S21G32    29.82R FOG
6HR MIN TEMP:  59; 6HR MAX TEMP:  65; 6HR PCP:  0.21;

AURORA         RAIN      60  59  97 S15G26    29.80F
HASTINGS       CLOUDY    59  57  93 SE18G26   29.81R
6HR MIN TEMP:  59; 6HR MAX TEMP:  64; 6HR PCP:  0.30;

HEBRON         CLOUDY    59  58  97 E9        29.83F
HOLDREGE       CLOUDY    58  56  94 SE18      29.71F
KEARNEY *      CLOUDY    59  55  88 E26G37    29.71F
YORK           LGT RAIN  61  59  94 S22G28    29.81S
$$

NEZ011>018-030>034-042>045-270700-
NORTHEAST NEBRASKA

CITY           SKY/WX    TMP DP  RH WIND       PRES   REMARKS
NORFOLK        CLOUDY    60  56  86 CALM      29.81F
6HR MIN TEMP:  60; 6HR MAX TEMP:  65; 6HR PCP: TRACE;

ALBION         CLOUDY    61  55  83 SE10G17   29.80S
BLAIR          CLOUDY    64  58  83 S20G26    29.78F
FREMONT        CLOUDY    62  57  82 SE14G23   29.80F
TEKAMAH        MOCLDY    64  54  69 S9G20     29.81R
6HR MIN TEMP:  63; 6HR MAX TEMP:  69; 6HR PCP: TRACE;

WAYNE          CLOUDY    60  57  91 SW6       29.82F
$$

NEZ050>053-065>068-078-088>093-270700-
SOUTHEAST NEBRASKA

CITY           SKY/WX    TMP DP  RH WIND       PRES   REMARKS
LINCOLN        LGT RAIN  61  58  90 S10       29.80F
6HR MIN TEMP:  61; 6HR MAX TEMP:  64; 6HR PCP:  0.14;

OMAHA EPPLEY   CLOUDY    65  58  78 S20G28    29.78S
6HR MIN TEMP:  63; 6HR MAX TEMP:  67; 6HR PCP:  0.10;

BEATRICE       TSTM      61  59  95 S8        29.85S
FALLS CITY     LGT RAIN  63  63 100 E10       29.80S
6HR MIN TEMP:  62; 6HR MAX TEMP:  65; 6HR PCP:  1.02;

NEBRASKA CITY  RAIN      61  61 100 SW7G20    29.80F
PLATTSMOUTH    CLOUDY    64  61  90 SE10      29.79F
$$

NEZ044-045-051>053-067-270700-
OMAHA AREA

CITY           SKY/WX    TMP DP  RH WIND       PRES   REMARKS
OMAHA EPPLEY   CLOUDY    65  58  78 S20G28    29.78S
6HR MIN TEMP:  63; 6HR MAX TEMP:  67; 6HR PCP:  0.10;

BLAIR          CLOUDY    64  58  83 S20G26    29.78F
FREMONT        CLOUDY    62  57  82 SE14G23   29.80F
MILLARD        CLOUDY    64  59  83 S15       29.79F
OFFUTT AFB     CLOUDY    64  60  87 SE17G24   29.77F
PLATTSMOUTH    CLOUDY    64  61  90 SE10      29.79F
WAHOO          FAIR      62  57  84 S14       29.80F
$$




USA.gov is the U.S. government's official web portal to all federal, state and local government web resources and services.